Wind_Speed
11 11 11 11 11 11 11 12 12 13 13 14 14 14 15 16 14 14 13 10 10 11 13 13 12 14 10 11 16 3 3 2 7 16 10 21 19 13 10 21 6 10 21 29 30
13 12 12 13 13 12 12 12 12 13 14 14 15 15 16 17 17 15 14 15 14 12 13 14 16 17 11 8 4 5 4 5 7 17 17 24 29 16 8 14 11 20 22 34 31
15 15 15 14 14 14 14 14 13 14 14 15 15 15 16 16 17 16 8 6 8 9 14 15 15 14 9 3 8 4 4 7 25 22 28 24 18 11 22 4 19 36 38 34 30
17 16 16 16 16 16 15 15 14 14 14 15 15 16 15 13 4 4 1 12 15 16 17 15 12 11 3 5 4 6 10 14 12 25 24 19 16 17 6 6 25 37 37 33 31
17 18 17 17 17 17 17 16 16 15 15 14 14 16 15 9 22 18 19 21 17 12 15 12 11 9 2 7 5 3 7 24 33 33 25 22 15 11 19 25 30 31 30 30 29
18 18 19 18 18 18 18 17 17 16 15 15 14 15 15 10 25 23 25 22 10 14 12 11 8 14 17 5 6 4 23 24 30 27 24 24 21 7 20 29 29 29 27 25 26
19 20 19 19 20 20 19 17 16 17 16 16 14 16 20 31 18 8 11 19 14 15 20 16 16 12 23 2 6 9 8 10 21 17 15 29 6 10 28 28 27 25 25 24 21
21 21 20 20 20 21 20 17 15 16 15 15 14 16 17 26 23 27 21 18 18 19 16 16 12 15 4 4 6 5 6 4 3 10 16 5 5 16 26 26 24 22 22 24 25
23 23 22 21 21 21 20 17 14 14 13 13 11 10 17 15 17 20 27 24 15 16 14 14 15 3 1 4 5 8 1 1 0 4 7 2 10 18 27 25 24 23 25 23 25
23 23 23 21 20 20 16 13 7 7 8 8 11 6 19 14 2 16 21 23 18 12 15 9 6 4 3 3 4 4 2 3 3 4 15 5 7 20 30 27 26 25 24 24 27
23 23 22 21 18 16 13 3 9 1 16 12 10 14 22 4 16 9 11 21 17 14 6 12 4 7 10 9 8 8 5 5 4 2 4 2 13 21 27 24 24 26 27 28 29
23 22 22 20 16 9 10 9 14 15 15 16 23 31 37 29 16 13 9 15 13 9 4 2 7 12 9 11 6 12 8 5 5 7 4 7 11 17 26 29 32 32 32 34 33
21 24 22 19 12 4 7 10 9 15 6 13 27 32 38 16 21 29 10 22 7 8 7 8 8 6 8 5 6 1 4 4 6 4 5 10 3 14 19 25 26 29 33 34 35
19 21 24 20 6 12 3 6 6 8 3 7 10 18 30 24 10 31 26 13 7 13 5 7 12 11 9 12 10 6 9 9 7 2 4 8 4 12 17 19 23 29 31 35 36
19 18 20 19 22 17 13 8 7 0 4 5 7 7 20 23 8 22 30 19 15 7 8 10 10 12 14 11 21 16 8 15 15 10 2 5 4 6 10 15 19 28 33 35 37
19 18 20 17 18 14 12 9 4 4 8 6 5 7 9 13 10 10 18 25 22 9 6 13 11 10 14 12 17 7 8 15 6 4 7 16 6 4 12 21 22 29 35 36 38
22 18 17 20 19 15 9 4 3 4 6 6 5 6 6 8 16 6 17 10 10 13 11 5 13 14 7 7 6 14 13 4 3 2 7 9 4 9 23 16 24 28 36 37 42
24 20 17 18 16 4 1 4 4 5 11 7 5 1 11 6 11 8 6 13 6 6 5 10 9 19 7 11 9 8 19 6 7 5 5 6 7 10 27 31 37 43 49 42 42
24 23 21 14 1 3 0 2 7 6 5 12 16 7 5 6 7 12 12 9 14 11 12 8 9 6 13 12 10 8 3 8 7 2 3 4 6 6 17 20 27 31 33 37 44
25 27 12 12 13 5 2 5 5 4 12 7 4 9 8 11 7 19 11 11 7 12 9 5 2 7 7 9 10 8 5 3 3 3 2 5 5 4 10 20 20 23 35 39 44
20 12 4 14 10 12 4 6 7 30 16 10 12 8 6 6 8 7 9 12 21 12 13 6 4 7 5 8 15 1 3 4 6 5 6 2 6 8 17 19 23 29 41 41 48
10 3 16 13 4 1 5 5 11 23 24 11 7 6 12 7 8 5 6 4 23 22 13 11 5 7 12 3 9 9 12 8 5 4 2 5 6 6 14 15 27 34 40 45 53
17 8 11 12 3 3 7 5 7 16 21 7 5 11 13 9 7 10 7 9 31 20 20 12 8 1 6 7 4 6 6 6 6 4 6 5 7 3 7 15 35 36 40 44 47
7 4 7 7 8 3 5 5 7 16 16 13 15 19 17 15 8 10 15 13 28 21 35 23 5 17 10 8 5 4 7 7 8 5 6 7 9 13 6 12 15 34 43 42 44
3 3 5 4 4 4 3 5 9 7 6 15 9 15 16 6 9 14 14 12 18 16 18 17 16 9 21 15 6 5 8 9 7 7 7 9 8 12 6 11 23 40 39 39 39
4 2 6 11 16 4 2 4 9 11 4 13 9 16 10 17 18 10 12 8 10 10 12 9 10 10 16 11 6 11 10 17 12 6 8 8 8 8 11 12 18 34 39 38 43
4 7 6 8 5 2 4 7 12 15 14 13 13 17 15 17 31 32 31 29 19 12 5 6 17 9 16 15 11 7 8 13 13 13 13 11 12 5 6 9 26 29 35 41 47
Wind_Direction
335 332 328 324 322 321 321 321 322 323 323 323 323 323 320 316 317 310 302 318 307 323 324 336 336 335 286 245 244 270 60 292 169 134 125 132 123 124 111 129 152 191 159 164 155
338 330 323 319 317 314 312 310 310 312 312 315 315 318 317 314 314 301 299 303 298 293 306 322 329 327 307 273 233 141 145 228 138 123 148 145 133 125 123 126 109 128 152 158 160
338 334 328 319 314 311 308 305 303 303 304 306 308 311 310 314 320 301 308 336 337 307 309 313 319 328 291 263 170 176 182 123 140 152 141 136 135 125 131 152 173 151 157 163 167
337 334 329 325 319 312 306 301 297 295 297 299 300 303 301 301 274 208 331 345 328 317 312 309 320 318 269 279 166 118 157 126 113 115 141 146 126 128 128 150 157 155 159 165 174
338 333 328 325 320 314 309 303 298 292 292 290 293 294 296 273 247 249 272 299 309 312 312 309 324 324 324 302 141 130 96 98 106 107 127 118 111 105 109 135 145 149 159 172 178
343 333 326 322 318 311 306 301 297 292 290 287 286 285 285 258 262 258 264 270 278 281 303 315 307 320 306 338 55 172 120 130 120 120 129 113 121 99 139 147 149 158 171 181 189
346 343 338 326 318 312 306 300 294 288 284 282 282 280 272 256 256 249 223 242 243 262 278 287 298 299 298 225 88 57 93 89 126 134 120 114 51 119 153 155 160 168 174 176 180
340 340 340 338 325 312 307 303 292 282 279 275 276 280 267 276 277 254 229 236 242 256 260 275 293 294 301 303 51 66 51 96 206 130 155 84 142 152 158 158 165 175 178 189 192
339 337 336 336 333 321 306 310 290 274 266 264 270 269 271 266 258 246 225 234 217 234 244 263 280 208 279 67 22 32 95 69 141 239 173 117 137 173 169 170 172 183 182 193 198
340 338 336 335 335 328 319 315 316 265 257 259 237 286 253 241 320 297 222 222 221 234 277 268 251 110 67 110 181 129 123 214 214 252 163 136 154 167 178 179 181 183 188 193 197
340 339 337 336 337 330 342 98 13 52 322 270 259 234 267 239 283 277 214 209 218 244 224 267 129 208 194 208 178 147 213 149 279 210 129 200 151 175 183 183 187 185 188 197 203
338 339 337 338 334 322 20 55 15 324 289 276 256 259 256 267 295 247 221 206 203 220 172 323 219 216 192 211 198 179 187 212 216 250 102 122 170 187 180 195 192 190 190 199 205
338 337 337 336 325 289 7 10 355 360 260 275 252 250 245 246 238 253 241 214 173 210 198 189 233 171 184 145 214 184 192 202 196 126 137 127 196 197 203 197 200 201 200 200 202
340 337 336 339 325 328 289 316 353 17 340 266 217 240 224 224 267 241 230 230 208 197 192 225 234 228 209 170 172 221 224 230 249 104 246 151 245 209 198 200 199 204 205 206 204
337 337 330 341 316 326 310 299 346 32 300 217 215 215 204 178 165 232 218 222 194 188 156 225 181 209 230 201 181 222 199 220 235 235 20 209 134 249 157 204 203 202 205 207 205
332 330 323 323 312 338 316 295 326 59 240 285 185 163 121 194 204 202 197 217 206 189 227 225 247 200 220 224 187 172 193 247 267 175 202 207 151 260 191 201 197 199 202 202 201
327 326 314 308 306 325 299 286 73 187 305 255 222 160 168 172 198 176 182 182 183 178 207 241 246 254 221 203 159 203 196 240 234 168 216 167 141 224 209 195 191 188 198 200 200
324 325 310 299 313 345 18 63 191 222 256 330 350 317 182 140 212 207 161 201 209 141 142 195 239 227 208 190 181 183 217 181 224 212 258 141 212 247 193 185 190 192 192 195 195
327 326 318 342 14 139 24 131 202 235 323 2 331 286 305 204 153 196 213 214 205 177 181 168 232 249 221 229 143 229 191 197 138 36 51 246 300 336 167 179 184 187 186 188 194
333 330 2 44 354 206 97 247 265 320 5 338 335 21 10 330 4 182 184 219 210 191 179 216 217 236 254 198 225 164 218 236 20 134 222 314 298 203 175 180 185 181 190 192 195
338 329 40 354 356 179 192 225 305 284 322 344 332 314 348 327 355 315 221 226 196 204 183 170 104 262 253 198 220 166 219 37 118 135 164 206 273 201 186 187 181 189 193 190 194
352 327 340 7 0 131 229 194 239 272 289 279 292 274 265 294 302 315 256 257 196 202 196 191 165 233 228 242 201 181 200 167 127 230 152 164 260 268 176 181 197 191 193 193 197
333 288 348 345 36 334 328 320 306 278 269 269 285 313 315 325 324 300 274 322 313 192 196 180 194 32 325 305 285 187 188 150 117 97 186 152 259 126 235 187 194 188 194 195 197
341 344 344 23 9 70 5 295 319 305 300 296 281 266 276 283 242 277 295 303 313 267 195 184 161 207 202 223 156 175 194 168 138 136 164 208 270 291 259 189 176 189 192 194 194
349 355 357 314 330 342 292 263 287 296 294 300 292 255 245 249 284 261 275 300 292 294 197 179 209 179 223 236 239 210 188 190 169 176 161 237 211 260 237 205 175 191 189 191 192
352 351 317 282 284 281 266 286 288 301 333 304 288 296 261 229 227 271 295 295 274 327 209 185 203 164 220 224 213 222 236 203 196 162 199 161 233 217 278 191 152 179 184 185 191
299 326 291 271 289 19 309 332 301 317 293 283 318 309 290 277 239 247 258 261 258 278 281 224 199 163 216 214 238 259 215 222 212 204 184 209 220 155 194 267 167 171 182 187 195
Height
1536 1534 1533 1531 1530 1528 1527 1526 1524 1523 1521 1520 1519 1517 1516 1513 1513 1512 1510 1511 1511 1510 1510 1511 1510 1511 1511 1509 1507 1507 1518 1521 1518 1516 1523 1523 1521 1530 1532 1531 1536 1537 1538 1540 1545
1535 1534 1532 1530 1528 1526 1525 1524 1522 1521 1520 1518 1517 1516 1515 1513 1511 1510 1510 1509 1509 1509 1510 1509 1509 1507 1506 1505 1505 1505 1518 1509 1505 1510 1516 1520 1518 1525 1533 1535 1538 1537 1541 1544 1546
1533 1532 1530 1529 1527 1525 1523 1522 1520 1519 1518 1517 1515 1515 1513 1512 1511 1507 1507 1507 1507 1508 1509 1509 1507 1506 1500 1500 1502 1503 1510 1502 1506 1507 1513 1519 1523 1526 1531 1536 1532 1531 1538 1544 1547
1531 1530 1528 1526 1524 1522 1521 1520 1518 1516 1515 1514 1513 1512 1512 1512 1517 1506 1505 1506 1507 1508 1508 1508 1507 1506 1504 1498 1498 1504 1500 1499 1505 1508 1516 1520 1523 1529 1529 1530 1534 1536 1541 1545 1548
1530 1528 1526 1524 1522 1519 1518 1517 1516 1514 1513 1512 1511 1510 1510 1509 1503 1506 1504 1505 1505 1507 1506 1507 1507 1505 1504 1500 1499 1501 1502 1504 1506 1510 1517 1523 1527 1530 1534 1536 1540 1543 1546 1548 1550
1528 1526 1524 1521 1519 1516 1515 1514 1513 1512 1511 1509 1509 1508 1507 1506 1501 1503 1502 1502 1504 1505 1506 1507 1508 1508 1504 1503 1503 1502 1502 1508 1509 1514 1520 1523 1532 1531 1541 1541 1544 1547 1548 1550 1551
1527 1524 1521 1518 1515 1513 1511 1510 1509 1508 1507 1506 1506 1504 1501 1493 1496 1498 1498 1499 1500 1502 1504 1505 1507 1508 1504 1502 1500 1502 1507 1510 1512 1515 1522 1521 1535 1536 1539 1543 1546 1548 1549 1551 1553
1525 1522 1519 1516 1512 1509 1507 1505 1504 1503 1503 1503 1502 1501 1493 1489 1491 1491 1495 1495 1497 1499 1502 1504 1505 1506 1503 1501 1503 1509 1516 1527 1517 1515 1521 1520 1547 1540 1542 1543 1546 1548 1549 1551 1553
1523 1520 1516 1513 1509 1505 1502 1501 1499 1498 1499 1499 1500 1499 1488 1484 1482 1484 1489 1491 1495 1496 1497 1501 1502 1503 1503 1508 1520 1520 1534 1530 1520 1513 1516 1521 1541 1541 1542 1543 1543 1545 1547 1549 1551
1522 1518 1514 1511 1507 1502 1499 1496 1494 1494 1495 1496 1497 1501 1484 1480 1480 1480 1483 1488 1492 1495 1494 1497 1500 1504 1507 1513 1538 1525 1528 1530 1525 1511 1513 1521 1528 1534 1539 1540 1539 1542 1544 1546 1548
1520 1516 1512 1508 1505 1501 1497 1494 1496 1496 1495 1493 1489 1483 1474 1479 1478 1476 1480 1484 1489 1492 1496 1493 1505 1514 1506 1500 1502 1503 1513 1525 1518 1508 1514 1521 1525 1530 1534 1538 1538 1538 1541 1543 1543
1518 1515 1510 1507 1503 1501 1500 1499 1508 1511 1492 1483 1480 1479 1473 1480 1480 1473 1477 1483 1485 1491 1490 1498 1506 1492 1495 1496 1500 1504 1509 1518 1515 1506 1518 1524 1530 1527 1528 1529 1530 1531 1535 1537 1539
1517 1512 1509 1505 1501 1501 1500 1501 1502 1498 1493 1474 1471 1467 1467 1475 1474 1469 1475 1475 1478 1487 1489 1499 1488 1487 1493 1499 1499 1500 1508 1508 1513 1508 1511 1521 1534 1532 1525 1528 1532 1531 1531 1532 1533
1517 1512 1507 1503 1503 1500 1500 1499 1498 1497 1500 1472 1459 1450 1458 1467 1466 1462 1468 1474 1474 1481 1486 1490 1482 1484 1490 1499 1498 1509 1489 1495 1503 1519 1540 1514 1555 1528 1521 1523 1525 1527 1528 1528 1529
1515 1512 1508 1506 1501 1501 1500 1497 1496 1497 1513 1448 1444 1441 1440 1450 1452 1450 1459 1467 1469 1473 1480 1482 1478 1482 1487 1489 1489 1490 1485 1491 1498 1512 1520 1521 1539 1519 1517 1523 1518 1519 1522 1522 1523
1513 1510 1506 1505 1503 1501 1497 1496 1498 1507 1505 1450 1435 1437 1443 1445 1446 1445 1452 1461 1462 1470 1471 1472 1468 1471 1471 1474 1482 1480 1488 1488 1494 1515 1546 1512 1522 1526 1511 1500 1504 1509 1513 1516 1518
1511 1508 1504 1501 1499 1499 1497 1497 1508 1510 1462 1446 1437 1435 1439 1443 1446 1444 1448 1456 1463 1480 1484 1473 1469 1463 1466 1477 1477 1484 1496 1528 1535 1540 1529 1508 1517 1506 1484 1487 1490 1498 1505 1510 1513
1507 1504 1500 1498 1497 1498 1497 1500 1508 1478 1465 1442 1438 1432 1438 1436 1443 1442 1448 1455 1454 1461 1482 1488 1493 1462 1456 1467 1479 1484 1485 1525 1541 1536 1518 1499 1514 1484 1465 1474 1482 1488 1492 1502 1508
1503 1499 1495 1494 1494 1497 1500 1509 1494 1481 1465 1463 1449 1449 1440 1432 1435 1444 1447 1449 1445 1451 1471 1486 1482 1450 1451 1455 1464 1473 1490 1473 1504 1506 1516 1504 1480 1459 1460 1473 1481 1489 1496 1498 1502
1501 1497 1493 1494 1496 1497 1503 1501 1488 1477 1477 1475 1472 1461 1466 1460 1451 1440 1446 1433 1442 1440 1445 1457 1479 1454 1447 1452 1454 1466 1460 1487 1504 1522 1523 1511 1494 1492 1480 1475 1478 1486 1488 1491 1496
1502 1498 1493 1492 1488 1496 1503 1499 1488 1474 1486 1482 1481 1483 1474 1468 1458 1455 1434 1427 1430 1435 1441 1450 1464 1462 1451 1456 1459 1468 1472 1477 1488 1503 1526 1531 1511 1465 1464 1466 1469 1474 1477 1484 1488
1503 1502 1492 1489 1492 1493 1494 1490 1487 1481 1480 1485 1482 1480 1478 1473 1469 1460 1443 1427 1421 1427 1440 1440 1463 1474 1462 1440 1439 1450 1461 1469 1501 1501 1506 1511 1502 1445 1452 1458 1467 1467 1472 1476 1480
1503 1498 1491 1490 1498 1499 1493 1490 1489 1483 1477 1480 1476 1474 1473 1477 1481 1458 1438 1421 1422 1418 1426 1434 1457 1482 1467 1454 1442 1447 1450 1457 1470 1482 1498 1510 1495 1444 1447 1451 1455 1460 1467 1470 1476
1506 1503 1495 1494 1497 1497 1499 1492 1486 1479 1477 1475 1474 1474 1474 1472 1472 1458 1446 1428 1417 1417 1413 1422 1446 1450 1469 1450 1444 1450 1446 1447 1460 1490 1494 1491 1472 1450 1443 1447 1448 1452 1457 1465 1471
1508 1507 1508 1505 1496 1497 1499 1492 1487 1482 1471 1472 1468 1466 1469 1470 1462 1453 1444 1433 1416 1408 1406 1415 1435 1441 1436 1436 1437 1440 1441 1443 1456 1460 1476 1465 1469 1449 1440 1439 1439 1443 1452 1460 1467
1510 1511 1508 1504 1498 1495 1493 1489 1482 1476 1476 1470 1467 1461 1455 1456 1451 1444 1439 1440 1431 1410 1405 1407 1429 1432 1440 1434 1437 1442 1436 1430 1438 1448 1451 1456 1457 1436 1433 1434 1436 1441 1446 1453 1458
1509 1509 1507 1500 1495 1496 1492 1488 1483 1482 1466 1463 1460 1459 1448 1441 1437 1433 1433 1432 1425 1426 1424 1413 1411 1435 1442 1431 1436 1454 1435 1431 1428 1427 1436 1453 1443 1432 1435 1439 1431 1438 1440 1445 1450